Location: Venise Bay
(45.0825°N, 73.1481°W)
Time: 23:58:13
(UTC-05:00)

ISS - Pass Details

Date: 06 December 2021
Orbit: 413 x 423 km, 51.6° (Epoch: 20 January)

Event Time Altitude Azimuth Distance (km) Brightness Sun altitude
Rises 18:09:18 0° 294° (WNW) 2,380 1.0 -20.1°
Reaches altitude 10° 18:11:34 10° 282° (WNW) 1,509 0.0 -20.5°
Maximum altitude 18:14:33 29° 221° (SW) 807 -1.9 -21.0°
Enters shadow 18:16:13 19° 175° (S) 1,076 -1.7 -21.3°
